Location: Baltimore
(39.2900°N, 76.6130°W)
Time: 08:35:14
(UTC-05:00)

Hubble Space Telescope - Visible Passes

Search period start: 08 December 2025 00:00
Search period end: 18 December 2025 00:00
Orbit: 480 x 483 km, 28.5° (Epoch: 07 December)

Date Brightness Start Highest point End Pass type
(mag) Time Alt. Az. Time Alt. Az. Time Alt. Az.
09 Dec 3.1 18:54:04 10° SSW 18:55:11 13° S 18:55:11 13° S visible
10 Dec 2.9 18:24:52 10° SSW 18:26:45 13° S 18:27:41 12° SSE visible
11 Dec 3.0 17:55:40 10° SSW 17:57:34 13° S 17:59:28 10° SE visible
12 Dec 3.1 17:26:26 10° SSW 17:28:21 13° S 17:30:16 10° SE visible
12 Dec 3.1 19:05:14 10° SW 19:06:49 15° SSW 19:06:49 15° SSW visible
13 Dec 2.8 18:36:01 10° SW 18:38:20 16° S 18:39:20 14° SSE visible
14 Dec 3.0 18:06:46 10° SW 18:09:05 16° S 18:11:24 10° SE visible
15 Dec 3.1 17:37:29 10° SW 17:39:48 16° S 17:42:07 10° SE visible
16 Dec 3.2 17:08:11 10° SW 17:10:30 15° S 17:12:49 10° SE visible
